[[{"header":{"parameterUnit":"m.s-1","parameterCategory":1,"la1":30.2991,"la2":30.254,"lo1":-89.0895,"lo2":-89.0444,"dy":0.0017,"dx":0.0017,"nx":28,"ny":28,"refTime":"2024-07-11T03:00:00:Z","depth":0,"parameterNumber":2,"parameterNumberName":"U-component_of_WINDS"},"data":[0,0,0,0,0,0,0,0,0,0,0,0,0,0,0,0,0,0,0,0,0,0,0,0,0,0,0,0,0,0,0,0,0,0,0,0,0,0,0,0,0,0,0,0,0,0,0,0,0,0,0,0,0,0,0,0,0,0,1.365,1.3651,0,1.3733,1.3734,1.3735,1.3754,1.3754,1.3753,1.3753,1.3837,1.384,1.3843,0,0,0,0,0,0,0,0,0,0,0,0,0,1.3506,1.3509,1.365,1.3651,1.3652,1.3733,1.3734,1.3735,1.3754,1.3754,1.3753,1.3752,1.3836,1.384,1.3843,0,0,0,0,0,0,0,0,0,0,0,0,0,1.3577,1.351,1.365,1.3671,1.3674,1.3733,1.3734,1.3736,1.3754,1.3754,1.3753,1.3752,1.3835,1.3839,1.3843,1.3887,0,0,1.3856,1.3858,0,0,0,0,0,0,0,0,1.3573,1.3582,1.3667,1.367,1.3673,1.3732,1.3715,1.3786,1.3755,1.3724,1.3753,1.3751,1.3803,1.381,1.3827,1.3891,1.3894,1.3857,1.3859,1.3861,1.3862,0,0,0,0,0,0,0,1.3568,1.3579,1.3683,1.3668,1.3672,1.3676,1.3686,1.3728,1.3767,1.3726,1.3728,1.3738,1.3805,1.3823,1.383,1.3896,1.3857,1.386,1.3863,1.3865,1.3999,1.4,0,0,0,0,0,0,1.356,1.3575,1.368,1.3685,1.362,1.368,1.369,1.3714,1.3767,1.3774,1.3738,1.3738,1.3817,1.3825,1.3833,1.3887,1.3861,1.3865,1.3867,1.3998,1.3999,1.4,0,0,0,0,0,0,1.3556,1.3569,1.3677,1.3631,1.3645,1.3683,1.371,1.3716,1.3735,1.3776,1.3783,1.375,1.3816,1.3827,1.3873,1.389,1.3867,1.3871,1.3996,1.3998,1.4,1.3995,0,0,0,0,0,0,1.3552,1.3568,1.3584,1.3631,1.3647,1.3716,1.3711,1.3719,1.3742,1.3743,1.3789,1.3796,1.3816,1.3867,1.3877,1.3895,1.3874,1.3995,1.3997,1.3999,1.3994,1.3996,1.3998,0,0,0,0,0,1.3547,1.358,1.3585,1.3598,1.3669,1.3717,1.3726,1.3749,1.3744,1.3761,1.3787,1.3794,1.3886,1.3871,1.3883,1.3903,1.3994,1.3997,1.3999,1.3993,1.3996,1.3998,0,0,0,0,0,0,1.3534,1.3586,1.3593,1.3642,1.3675,1.372,1.3743,1.3752,1.3787,1.3786,1.3813,1.3824,1.3868,1.389,1.3873,1.3948,1.394,1.3945,1.3931,1.3935,1.3937,1.393,1.3877,0,0,0,0,0,1.3537,1.3572,1.3615,1.3654,1.3671,1.3704,1.3725,1.374,1.3776,1.379,1.382,1.3854,1.389,1.3914,1.395,1.3997,1.4008,1.4017,1.4019,1.402,1.4024,1.4051,1.4055,1.4008,1.4008,1.4008,0,0,1.3543,1.3576,1.3596,1.3652,1.368,1.3715,1.3715,1.3753,1.3779,1.3796,1.3841,1.3864,1.3904,1.3951,1.3974,1.3971,1.404,1.4023,1.4024,1.4027,1.4054,1.4058,1.4062,1.4009,1.4009,1.4009,0,0,1.3572,1.3601,1.3636,1.3664,1.3706,1.3727,1.3736,1.378,1.3796,1.3843,1.3856,1.3887,1.395,1.3978,1.4,1.404,1.4048,1.4051,1.4062,1.4088,1.4092,1.4095,1.411,1.4114,1.4055,1.4055,1.4055,0,1.3575,1.3629,1.3653,1.369,1.3714,1.3731,1.3767,1.3793,1.3844,1.386,1.3857,1.3936,1.3963,1.4017,1.4027,1.4045,1.4055,1.4046,1.409,1.4093,1.4097,1.4111,1.4116,1.4055,1.4055,1.4055,1.4055,0,1.3629,1.3666,1.369,1.3739,1.3766,1.3802,1.3832,1.3856,1.3869,1.3891,1.3938,1.3973,1.4016,1.403,1.4043,1.4086,1.4083,1.4084,1.4077,1.4101,1.4114,1.412,1.4055,1.4055,1.4055,1.4055,0,0,1.3652,1.3715,1.3723,1.3745,1.3793,1.3822,1.3859,1.3901,1.3922,1.3957,1.3988,1.4041,1.4042,1.4068,1.4084,1.4107,1.4136,1.4105,1.4106,1.4109,1.4185,1.4184,1.4189,1.4142,1.4143,1.4144,1.4182,0,1.3687,1.3753,1.3777,1.3832,1.3866,1.3883,1.3915,1.3948,1.397,1.4002,1.4026,1.4063,1.4062,1.4078,1.4101,1.4127,1.4151,1.4125,1.4171,1.4172,1.416,1.4196,1.4195,1.4229,1.4187,1.4188,1.4189,0,1.3736,1.3772,1.383,1.3873,1.3889,1.3917,1.3958,1.3989,1.4026,1.4041,1.4069,1.4084,1.4123,1.4114,1.4168,1.415,1.417,1.4186,1.4188,1.4192,1.4182,1.4202,1.4241,1.4246,1.4197,1.4197,1.4196,0,1.3746,1.3809,1.3852,1.3871,1.3923,1.3942,1.3965,1.4001,1.4025,1.4061,1.4077,1.4117,1.4138,1.4169,1.4194,1.4185,1.4246,1.4239,1.4258,1.4258,1.427,1.4269,1.4312,1.4284,1.4284,1.4284,1.4283,0,1.3782,1.3817,1.3858,1.3884,1.3924,1.395,1.3989,1.4012,1.4045,1.4076,1.4093,1.4122,1.4153,1.4186,1.4206,1.4248,1.4257,1.427,1.4275,1.4268,1.4267,1.4282,1.428,1.4285,1.4285,1.4284,1.4284,0,1.38,1.3829,1.3877,1.3922,1.3934,1.3961,1.4,1.4026,1.4049,1.4088,1.4099,1.4135,1.4174,1.4202,1.4253,1.4267,1.4312,1.4317,1.4299,1.4301,1.4319,1.4317,1.4374,1.4383,1.4348,1.4348,1.4349,0,1.3821,1.3849,1.3897,1.3919,1.3941,1.3977,1.4002,1.4029,1.4054,1.4099,1.4119,1.416,1.4195,1.4257,1.4288,1.4327,1.4333,1.435,1.4339,1.4331,1.4333,1.433,1.4333,1.4351,1.4351,1.4352,1.4352,0,1.3855,1.3868,1.3903,1.3943,1.3972,1.4005,1.4038,1.4055,1.4088,1.4116,1.4156,1.4183,1.4235,1.4276,1.4318,1.4341,1.4352,1.4355,1.4362,1.4355,1.4344,1.435,1.4303,1.4354,1.4353,1.4353,1.4353,1.4353,1.3875,1.39,1.3938,1.3977,1.4004,1.4035,1.4062,1.4088,1.4123,1.4167,1.4181,1.4224,1.4261,1.4319,1.4342,1.4376,1.4375,1.4384,1.4387,1.4389,1.4388,1.4339,1.4384,1.4384,1.4384,1.4384,1.4384,0,1.391,1.3935,1.397,1.4016,1.4046,1.4054,1.4091,1.4116,1.4153,1.4187,1.422,1.4267,1.4306,1.434,1.4381,1.4401,1.4407,1.4411,1.441,1.4415,1.4387,1.4377,1.4405,1.4405,1.4405,1.4405,1.4405,1.4405,1.3931,1.3974,1.3991,1.4048,1.4073,1.4115,1.4135,1.4164,1.419,1.4242,1.4275,1.4297,1.4331,1.4374,1.4411,1.4419,1.4434,1.4436,1.4446,1.4419,1.4417,1.4414,1.4405,1.4439,1.4439,1.4471,1.4471,1.4472]},{"header":{"parameterUnit":"m.s-1","parameterCategory":1,"la1":30.2991,"la2":30.254,"lo1":-89.0895,"lo2":-89.0444,"dy":0.0017,"dx":0.0017,"nx":28,"ny":28,"refTime":"2024-07-11T03:00:00:Z","depth":0,"parameterNumber":3,"parameterNumberName":"V-component_of_WINDS"},"data":[0,0,0,0,0,0,0,0,0,0,0,0,0,0,0,0,0,0,0,0,0,0,0,0,0,0,0,0,0,0,0,0,0,0,0,0,0,0,0,0,0,0,0,0,0,0,0,0,0,0,0,0,0,0,0,0,0,0,0.6448,0.6448,0,0.6452,0.6452,0.6453,0.6428,0.6427,0.6426,0.6425,0.6431,0.6432,0.6432,0,0,0,0,0,0,0,0,0,0,0,0,0,0.6417,0.6418,0.6448,0.6448,0.6448,0.6452,0.6452,0.6453,0.6428,0.6427,0.6426,0.6425,0.6431,0.6432,0.6433,0,0,0,0,0,0,0,0,0,0,0,0,0,0.6427,0.6418,0.6448,0.6436,0.6435,0.6452,0.6452,0.6453,0.6428,0.6427,0.6426,0.6425,0.643,0.6431,0.6433,0.6462,0,0,0.6436,0.6437,0,0,0,0,0,0,0,0,0.6426,0.6428,0.6437,0.6437,0.6436,0.6438,0.6444,0.6456,0.6428,0.6431,0.6425,0.6424,0.6434,0.6435,0.6438,0.6462,0.6462,0.6436,0.6437,0.6438,0.6438,0,0,0,0,0,0,0,0.6426,0.6428,0.6449,0.6438,0.6437,0.643,0.6431,0.6446,0.6438,0.643,0.6428,0.6429,0.6433,0.6437,0.6438,0.6462,0.6436,0.6438,0.6438,0.6439,0.651,0.6511,0,0,0,0,0,0,0.6427,0.6427,0.6449,0.645,0.6428,0.6432,0.6432,0.6439,0.6438,0.6437,0.643,0.6428,0.6436,0.6437,0.6438,0.6473,0.6438,0.6439,0.644,0.6509,0.651,0.6512,0,0,0,0,0,0,0.6426,0.6429,0.6449,0.6438,0.644,0.6434,0.6441,0.6439,0.6443,0.6438,0.6437,0.6435,0.6435,0.6437,0.6456,0.6472,0.6439,0.6441,0.6508,0.651,0.6511,0.6541,0,0,0,0,0,0,0.6425,0.6429,0.644,0.6438,0.6441,0.6467,0.6442,0.644,0.6445,0.6442,0.6443,0.6442,0.6434,0.6454,0.6457,0.6474,0.6442,0.6506,0.6509,0.6511,0.6539,0.6544,0.6548,0,0,0,0,0,0.6424,0.6448,0.644,0.6443,0.6454,0.6468,0.6469,0.646,0.6446,0.6457,0.6454,0.6442,0.647,0.6457,0.646,0.6477,0.6505,0.6508,0.651,0.6537,0.6543,0.6548,0,0,0,0,0,0,0.6452,0.6448,0.6439,0.6463,0.6466,0.6464,0.6477,0.6467,0.6474,0.6471,0.6459,0.6459,0.6481,0.6481,0.6466,0.6505,0.6485,0.6489,0.6504,0.651,0.6515,0.6515,0.6443,0,0,0,0,0,0.6461,0.6472,0.6468,0.6489,0.6491,0.6484,0.649,0.6482,0.6485,0.6486,0.6484,0.6487,0.6497,0.6503,0.6512,0.6538,0.6538,0.6551,0.6556,0.656,0.6563,0.6577,0.6583,0.652,0.652,0.652,0,0,0.6479,0.6478,0.6486,0.6495,0.6496,0.6508,0.6485,0.6499,0.6508,0.6488,0.6506,0.6505,0.6508,0.6531,0.6541,0.6531,0.658,0.6563,0.6566,0.6568,0.6581,0.6587,0.6592,0.6522,0.6522,0.6522,0,0,0.6519,0.6519,0.6538,0.6539,0.6541,0.6536,0.6541,0.654,0.6538,0.6556,0.6542,0.6552,0.6569,0.6571,0.6575,0.6615,0.6604,0.6618,0.6643,0.6657,0.6662,0.6666,0.6681,0.6686,0.6621,0.6621,0.6621,0,0.6542,0.6559,0.6548,0.6563,0.6567,0.655,0.6568,0.657,0.6575,0.6579,0.6567,0.6588,0.6588,0.6612,0.6622,0.6625,0.663,0.6618,0.6662,0.6666,0.667,0.6684,0.6689,0.6623,0.6623,0.6623,0.6623,0,0.6587,0.6599,0.6614,0.6619,0.6625,0.6641,0.6633,0.664,0.6632,0.6628,0.6647,0.6647,0.6655,0.666,0.6652,0.6683,0.6677,0.6664,0.6644,0.6678,0.6691,0.6696,0.6626,0.6625,0.6624,0.6624,0,0,0.6645,0.6644,0.6649,0.6651,0.6652,0.6661,0.6677,0.6685,0.6691,0.6695,0.6708,0.6722,0.6711,0.6715,0.6707,0.6719,0.6751,0.6705,0.6705,0.6714,0.6785,0.6795,0.6801,0.6744,0.6745,0.6745,0.6785,0,0.6684,0.6711,0.6701,0.6729,0.674,0.6723,0.6736,0.6739,0.6735,0.6744,0.6741,0.6751,0.6735,0.6737,0.6748,0.6745,0.6766,0.6742,0.6756,0.6756,0.6756,0.6808,0.6818,0.6856,0.679,0.6791,0.6791,0,0.6734,0.6739,0.6768,0.6767,0.6771,0.6783,0.679,0.6799,0.6801,0.6797,0.6802,0.6791,0.6807,0.6786,0.6807,0.6792,0.6797,0.6796,0.6797,0.6798,0.6776,0.6811,0.6867,0.6873,0.6799,0.6798,0.6798,0,0.6773,0.6788,0.6807,0.6809,0.6808,0.6818,0.6818,0.6818,0.6824,0.6829,0.6833,0.684,0.6844,0.685,0.6842,0.6828,0.6864,0.6843,0.6862,0.6862,0.6871,0.6871,0.6929,0.6873,0.6873,0.6873,0.6873,0,0.6819,0.6837,0.6825,0.6837,0.6856,0.6845,0.6865,0.6863,0.6864,0.6875,0.6861,0.6871,0.686,0.687,0.6863,0.6882,0.6884,0.6882,0.688,0.6883,0.6883,0.6887,0.6884,0.6875,0.6874,0.6874,0.6874,0,0.6867,0.6859,0.6879,0.6876,0.6876,0.6891,0.6889,0.6899,0.6895,0.6909,0.6912,0.6905,0.6915,0.6908,0.6918,0.6914,0.6938,0.6933,0.6938,0.6936,0.6956,0.6954,0.7019,0.7027,0.6966,0.6966,0.6967,0,0.6896,0.6909,0.6908,0.6915,0.6916,0.6926,0.6931,0.6921,0.6927,0.693,0.694,0.695,0.6956,0.6974,0.697,0.6978,0.6973,0.6995,0.6974,0.6977,0.6974,0.6973,0.6974,0.6999,0.7,0.7001,0.7001,0,0.6949,0.6945,0.6953,0.696,0.6967,0.6972,0.6975,0.6981,0.6971,0.6978,0.6989,0.6994,0.7005,0.7014,0.7021,0.7021,0.7009,0.7008,0.7012,0.7016,0.7019,0.7018,0.695,0.7006,0.7006,0.7005,0.7005,0.7005,0.6989,0.7,0.7001,0.7011,0.7012,0.7016,0.7026,0.7023,0.7032,0.7039,0.7032,0.7045,0.7047,0.7054,0.7055,0.7065,0.7056,0.7063,0.7065,0.7067,0.707,0.7017,0.7066,0.7066,0.7066,0.7066,0.7066,0,0.7042,0.7041,0.705,0.7056,0.7064,0.7052,0.7055,0.7062,0.7074,0.7076,0.7083,0.7095,0.7104,0.7101,0.7109,0.7117,0.7112,0.712,0.7119,0.7119,0.7077,0.7073,0.7124,0.7124,0.7124,0.7124,0.7124,0.7124,0.707,0.7089,0.7084,0.7104,0.7103,0.7115,0.7118,0.7122,0.7124,0.7138,0.7145,0.7143,0.7143,0.7151,0.7158,0.7157,0.7161,0.717,0.7167,0.7128,0.7122,0.7117,0.7112,0.7171,0.7171,0.7209,0.7209,0.7209]}]]